SL-14 DEB, 43321

Orbit data source: Space-Track

SL-14 DEB, 43321 is space debris in LEO originally from a launch on Tue, 02 Dec 1986 UTC launched from the Plesetsk Missile And Space Complex (PKMTR). Debris objects in space refer to the collection of defunct objects orbiting the Earth. Examples of debris include non-operational satellites, rocket bodies, and fragments generated from explosions, collisions, or faulty payload assembly.

Loading next visibility...
Identifier
43321, 1986-094D
Orbit
LEO
Country
Flag of CISCIS
Related business
Manufacturer
Unknown
Mission
Spacecraft
Bus & Motor
Unknown
Mass
Unknown
Launch date (UTC)
1986-12-02 (39 years ago)
Launch vehicle
Unknown
Launch site
Plesetsk Missile And Space Complex (PKMTR)
Object type
Payload
Rocket body
Debris
Shape & HBR
Unknown
Radar Cross Section
Small (<0.1 m²)

Expand to show TLE details & history
Last TLE update: 2 weeks ago

TLE from 2 weeks ago
0 SL-14 DEB
1 43321U 86094D   25246.55860134  .00000043  00000-0  24425-3 0  9998
2 43321  82.6088 181.9657 0003360 359.2198 123.2398 12.42147205955424
Epoch: 2025-09-03T13:24Z
TLE epoch observation values (Epoch: 2025-09-03T13:24:23.155Z)
Latitude
56.85803°
Longitude
166.53281°
Altitude
1,508.424 km
Speed
7.115 km/s
True Right ascension
23h 22m 15s
True Declination
56° 42' 56"
Sunlit
Object was in daylight at epoch
Visualization orbit readout
Latitude
Unknown
Longitude
Unknown
Altitude
Unknown
Speed
Unknown
Apparent Right ascension
Unknown
Apparent Declination
Unknown
Sunlit
N/A
Visualization observer readout
Local Sidereal Time
14:35:42
Azimuth
Unknown
Elevation
Unknown
Doppler factor
Unknown
Orbital elements
Apogee altitude
1,497.508 km
Perigee altitude
1,492.217 km
Semi-major axis
7,872.999 km
Eccentricity
0.00034
Inclination
82.6088°
RAAN
181.9657°
Arg. of periapsis
359.2198°
True anomaly
123.272°
Mean anomaly
123.2398°
Eccentric anomaly
123.2559°
Mean motion
3.10694 °/min
Orbital period
115.87 mins
BSTAR
0.00024425
Loading maneuver chart data...
Computing Atmospheric mass density...
Loading historical data...
Loading historical data...
Loading historical data...
Loading historical data...
Loading historical data...
Loading historical data...
Loading historical data...
Other satellites on launch #94 in the year 1986 (1986-12-02 UTC)

Documentation

Showing up to 5 results
|